[[{"header":{"parameterUnit":"m.s-1","parameterCategory":1,"la1":30.2991,"la2":30.254,"lo1":-89.0895,"lo2":-89.0444,"dy":0.0017,"dx":0.0017,"nx":28,"ny":28,"refTime":"2024-03-09T09:00:00:Z","depth":0,"parameterNumber":2,"parameterNumberName":"U-component_of_WINDS"},"data":[0,0,0,0,0,0,0,0,0,0,0,0,0,0,0,0,0,0,0,0,0,0,0,0,0,0,0,0,0,0,0,0,0,0,0,0,0,0,0,0,0,0,0,0,0,0,0,0,0,0,0,0,0,0,0,0,0,0,2.0178,2.0177,0,2.0136,2.0135,2.0135,2.0069,2.0068,2.0067,2.0066,2.0023,2.0023,2.0023,0,0,0,0,0,0,0,0,0,0,0,0,0,2.0204,2.0204,2.0178,2.0177,2.0177,2.0136,2.0135,2.0135,2.007,2.0068,2.0067,2.0065,2.0023,2.0023,2.0023,0,0,0,0,0,0,0,0,0,0,0,0,0,2.018,2.0203,2.0178,2.0139,2.0135,2.0136,2.0135,2.0134,2.007,2.0068,2.0066,2.0065,2.0023,2.0023,2.0023,2.0057,0,0,2.0022,2.0022,0,0,0,0,0,0,0,0,2.0182,2.0179,2.0145,2.0142,2.0138,2.0106,2.0128,2.0109,2.007,2.0095,2.0066,2.0064,2.0052,2.0049,2.0045,2.0055,2.0053,2.0022,2.0022,2.0022,2.0022,0,0,0,0,0,0,0,2.0183,2.0181,2.0161,2.0145,2.014,2.0125,2.0119,2.0124,2.0084,2.0092,2.0088,2.0084,2.0049,2.0046,2.0044,2.0053,2.0022,2.0022,2.0022,2.0022,2.0092,2.0094,0,0,0,0,0,0,2.019,2.0182,2.0162,2.016,2.0156,2.0126,2.012,2.0118,2.0083,2.0077,2.0085,2.0081,2.0047,2.0044,2.0042,2.0082,2.0022,2.0022,2.0022,2.009,2.0093,2.0095,0,0,0,0,0,0,2.0191,2.0189,2.0164,2.017,2.0165,2.0127,2.0126,2.0118,2.0114,2.0078,2.007,2.0088,2.0045,2.0042,2.0055,2.008,2.0022,2.0022,2.0088,2.0091,2.0094,2.0161,0,0,0,0,0,0,2.0192,2.019,2.0202,2.0171,2.0165,2.0177,2.0127,2.0118,2.0114,2.0108,2.0079,2.0073,2.0043,2.0055,2.0055,2.0078,2.0022,2.0086,2.0089,2.0093,2.0157,2.0166,2.0174,0,0,0,0,0,2.0193,2.0222,2.0203,2.0201,2.018,2.0178,2.0175,2.0141,2.0116,2.0129,2.0106,2.0074,2.0077,2.0057,2.0056,2.008,2.0084,2.0088,2.0092,2.0153,2.0164,2.0174,0,0,0,0,0,0,2.0256,2.0217,2.0195,2.0215,2.0201,2.0167,2.0182,2.0154,2.0147,2.0141,2.0099,2.0093,2.0112,2.0097,2.0075,2.0113,2.0076,2.008,2.0122,2.0133,2.0141,2.0144,2.0022,0,0,0,0,0,2.0273,2.0275,2.024,2.0261,2.0255,2.022,2.0218,2.0193,2.0177,2.017,2.0148,2.0134,2.0132,2.0131,2.0127,2.0155,2.0148,2.0171,2.018,2.0187,2.0191,2.0207,2.0217,2.0109,2.0109,2.0109,0,0,2.0306,2.0285,2.0288,2.0273,2.0259,2.0263,2.0215,2.022,2.0223,2.0171,2.0182,2.0166,2.0147,2.0168,2.0176,2.0156,2.022,2.0192,2.0199,2.0199,2.0212,2.0223,2.0232,2.0112,2.0111,2.0111,0,0,2.0369,2.0353,2.0369,2.0357,2.0337,2.0314,2.0318,2.029,2.0277,2.0288,2.0249,2.0252,2.0249,2.0238,2.0232,2.0295,2.0266,2.0295,2.034,2.0356,2.0365,2.0372,2.0396,2.0405,2.0299,2.0299,2.0299,0,2.0413,2.0417,2.0381,2.039,2.0385,2.0339,2.0356,2.0346,2.0325,2.0324,2.0302,2.0299,2.0283,2.0302,2.0317,2.0313,2.0318,2.0297,2.0366,2.0373,2.038,2.0402,2.0411,2.0303,2.0303,2.0302,2.0302,0,2.0473,2.0477,2.0492,2.0475,2.0472,2.0485,2.0452,2.0453,2.043,2.041,2.0422,2.0402,2.0394,2.0397,2.0373,2.0413,2.0402,2.0374,2.0335,2.0395,2.0415,2.0423,2.0308,2.0307,2.0306,2.0305,0,0,2.0572,2.0537,2.0544,2.0536,2.0512,2.0515,2.0527,2.052,2.0523,2.0511,2.0521,2.0521,2.0496,2.049,2.0465,2.0479,2.0532,2.0449,2.0448,2.0466,2.0577,2.0598,2.0608,2.0513,2.0514,2.0515,2.0579,0,2.0631,2.0649,2.0618,2.0644,2.0648,2.0606,2.0616,2.0604,2.0586,2.0587,2.0568,2.0569,2.0535,2.0531,2.0543,2.0523,2.0554,2.0518,2.0522,2.0523,2.0529,2.0619,2.0641,2.0701,2.0586,2.0587,2.0588,0,2.0701,2.0694,2.0721,2.0698,2.0698,2.0708,2.0701,2.0703,2.0688,2.0675,2.0669,2.064,2.0652,2.0615,2.0631,2.0608,2.0608,2.0599,2.06,2.06,2.0559,2.0621,2.072,2.0729,2.06,2.0599,2.0598,0,2.0773,2.077,2.0786,2.0781,2.0754,2.0763,2.0752,2.0736,2.0735,2.0729,2.0728,2.0723,2.0721,2.0718,2.069,2.0666,2.071,2.0671,2.07,2.0701,2.0711,2.0711,2.0812,2.0711,2.0711,2.071,2.071,0,2.0842,2.086,2.0819,2.0828,2.0848,2.0814,2.0834,2.0819,2.0806,2.0813,2.0777,2.0784,2.0746,2.075,2.0728,2.0746,2.0745,2.0735,2.0729,2.0738,2.074,2.0738,2.0733,2.0713,2.0712,2.0712,2.0711,0,2.0925,2.0898,2.0913,2.0887,2.0881,2.0897,2.0875,2.0884,2.0865,2.0875,2.0875,2.0846,2.0849,2.082,2.0818,2.0803,2.0832,2.0818,2.0837,2.0833,2.0864,2.0862,2.0968,2.0981,2.0871,2.0872,2.0873,0,2.097,2.0983,2.096,2.0963,2.0954,2.0958,2.0957,2.0925,2.0926,2.0912,2.0923,2.0923,2.0922,2.0929,2.0907,2.0906,2.0893,2.093,2.0892,2.0902,2.0895,2.0894,2.0896,2.0938,2.0939,2.094,2.0941,0,2.1055,2.1042,2.1042,2.1039,2.1039,2.1034,2.1027,2.1032,2.0996,2.0999,2.1003,2.1002,2.1,2.1002,2.0997,2.0986,2.0959,2.0954,2.096,2.097,2.0981,2.0977,2.0859,2.0951,2.095,2.0949,2.0949,2.0948,2.1121,2.1132,2.1118,2.112,2.1112,2.1107,2.1115,2.1098,2.11,2.1097,2.1078,2.1085,2.1073,2.1063,2.1056,2.1062,2.1044,2.1054,2.1056,2.1059,2.1066,2.0981,2.1061,2.106,2.106,2.106,2.106,0,2.1205,2.1195,2.1197,2.119,2.1192,2.1167,2.1159,2.1162,2.1169,2.116,2.116,2.1166,2.1168,2.1147,2.1147,2.1156,2.1143,2.1157,2.1156,2.1155,2.1081,2.1076,2.1167,2.1167,2.1167,2.1167,2.1167,2.1167,2.1249,2.1267,2.1253,2.1267,2.1256,2.1263,2.1261,2.1257,2.125,2.1258,2.126,2.1247,2.1234,2.1233,2.1234,2.1228,2.123,2.1248,2.1239,2.117,2.116,2.115,2.1144,2.1249,2.1249,2.1312,2.1312,2.1313]},{"header":{"parameterUnit":"m.s-1","parameterCategory":1,"la1":30.2991,"la2":30.254,"lo1":-89.0895,"lo2":-89.0444,"dy":0.0017,"dx":0.0017,"nx":28,"ny":28,"refTime":"2024-03-09T09:00:00:Z","depth":0,"parameterNumber":3,"parameterNumberName":"V-component_of_WINDS"},"data":[0,0,0,0,0,0,0,0,0,0,0,0,0,0,0,0,0,0,0,0,0,0,0,0,0,0,0,0,0,0,0,0,0,0,0,0,0,0,0,0,0,0,0,0,0,0,0,0,0,0,0,0,0,0,0,0,0,0,-5.4219,-5.422,0,-5.4312,-5.4313,-5.4314,-5.4324,-5.4323,-5.4322,-5.4321,-5.4411,-5.4414,-5.4417,0,0,0,0,0,0,0,0,0,0,0,0,0,-5.4048,-5.4051,-5.4219,-5.422,-5.4221,-5.4312,-5.4313,-5.4314,-5.4324,-5.4323,-5.4322,-5.4321,-5.441,-5.4414,-5.4418,0,0,0,0,0,0,0,0,0,0,0,0,0,-5.4129,-5.4052,-5.4219,-5.4237,-5.424,-5.4312,-5.4313,-5.4315,-5.4325,-5.4323,-5.4322,-5.432,-5.4409,-5.4413,-5.4418,-5.4476,0,0,-5.4433,-5.4435,0,0,0,0,0,0,0,0,-5.4125,-5.4136,-5.4233,-5.4236,-5.4239,-5.4305,-5.4286,-5.4369,-5.4325,-5.4292,-5.4321,-5.432,-5.4377,-5.4384,-5.4404,-5.448,-5.4484,-5.4433,-5.4436,-5.4439,-5.444,0,0,0,0,0,0,0,-5.4119,-5.4132,-5.4256,-5.4235,-5.4238,-5.424,-5.425,-5.4301,-5.4341,-5.4295,-5.4296,-5.4307,-5.4378,-5.44,-5.4406,-5.4485,-5.4433,-5.4438,-5.4441,-5.4443,-5.4618,-5.4619,0,0,0,0,0,0,-5.411,-5.4127,-5.4253,-5.4258,-5.4178,-5.4245,-5.4256,-5.4285,-5.434,-5.4348,-5.4308,-5.4307,-5.4392,-5.4401,-5.441,-5.4484,-5.4438,-5.4443,-5.4446,-5.4616,-5.4618,-5.462,0,0,0,0,0,0,-5.4107,-5.4122,-5.4249,-5.4193,-5.421,-5.4249,-5.4282,-5.4288,-5.431,-5.4351,-5.4357,-5.4323,-5.4391,-5.4403,-5.4461,-5.4487,-5.4445,-5.445,-5.4614,-5.4617,-5.4619,-5.463,0,0,0,0,0,0,-5.4102,-5.412,-5.4143,-5.4194,-5.4213,-5.4299,-5.4284,-5.4291,-5.4319,-5.4318,-5.4366,-5.4373,-5.4391,-5.4454,-5.4466,-5.4493,-5.4453,-5.4612,-5.4615,-5.4618,-5.4628,-5.4633,-5.4637,0,0,0,0,0,-5.4096,-5.414,-5.4144,-5.4159,-5.4242,-5.4301,-5.4311,-5.4333,-5.4321,-5.4344,-5.4371,-5.4371,-5.4482,-5.4459,-5.4473,-5.4502,-5.461,-5.4614,-5.4618,-5.4626,-5.4632,-5.4637,0,0,0,0,0,0,-5.4088,-5.4147,-5.4152,-5.4214,-5.4253,-5.4302,-5.4332,-5.4338,-5.4379,-5.4377,-5.44,-5.4411,-5.4469,-5.4491,-5.4465,-5.4563,-5.4545,-5.4552,-5.4546,-5.4552,-5.4557,-5.455,-5.4458,0,0,0,0,0,-5.4094,-5.4138,-5.4187,-5.4237,-5.4257,-5.4291,-5.4317,-5.4331,-5.4371,-5.4387,-5.4418,-5.4455,-5.4499,-5.4527,-5.4569,-5.4632,-5.4643,-5.4659,-5.4663,-5.4667,-5.4673,-5.471,-5.4718,-5.4633,-5.4633,-5.4633,0,0,-5.4106,-5.4144,-5.4169,-5.4237,-5.4268,-5.4314,-5.4304,-5.4351,-5.4385,-5.4393,-5.4451,-5.4476,-5.4519,-5.4581,-5.4609,-5.4601,-5.4699,-5.4672,-5.4675,-5.4678,-5.4715,-5.4723,-5.473,-5.4635,-5.4635,-5.4635,0,0,-5.4151,-5.4184,-5.4231,-5.4264,-5.4313,-5.4337,-5.4348,-5.4398,-5.4416,-5.4475,-5.4483,-5.4523,-5.4597,-5.4629,-5.4655,-5.4718,-5.4721,-5.4731,-5.4755,-5.4792,-5.4799,-5.4805,-5.4829,-5.4837,-5.4736,-5.4736,-5.4736,0,-5.4159,-5.4228,-5.4254,-5.4302,-5.4333,-5.4346,-5.4394,-5.4425,-5.4484,-5.4504,-5.4495,-5.4592,-5.4621,-5.4692,-5.4708,-5.4728,-5.4743,-5.4725,-5.4796,-5.4802,-5.4808,-5.4832,-5.484,-5.4737,-5.4737,-5.4737,-5.4737,0,-5.4237,-5.4285,-5.4317,-5.4379,-5.4412,-5.446,-5.4493,-5.4524,-5.4536,-5.4561,-5.4622,-5.466,-5.4711,-5.4729,-5.4739,-5.4803,-5.4796,-5.4791,-5.4774,-5.4817,-5.484,-5.4848,-5.4739,-5.4738,-5.4738,-5.4738,0,0,-5.4276,-5.4355,-5.4366,-5.4396,-5.4454,-5.4491,-5.4541,-5.4594,-5.4621,-5.4663,-5.4705,-5.477,-5.4768,-5.4797,-5.4812,-5.4844,-5.4894,-5.4835,-5.4837,-5.4846,-5.4968,-5.4972,-5.4982,-5.4897,-5.4899,-5.49,-5.4965,0,-5.4329,-5.442,-5.4446,-5.4522,-5.4568,-5.4584,-5.4628,-5.4668,-5.4693,-5.4735,-5.4762,-5.4809,-5.4801,-5.4819,-5.4852,-5.4881,-5.4919,-5.4877,-5.4937,-5.4939,-5.4926,-5.4993,-5.4996,-5.5055,-5.4974,-5.4975,-5.4976,0,-5.4401,-5.4449,-5.453,-5.4586,-5.4607,-5.4645,-5.4699,-5.4739,-5.4785,-5.4802,-5.4838,-5.4851,-5.4903,-5.4884,-5.4958,-5.4929,-5.4955,-5.4974,-5.4976,-5.4982,-5.496,-5.5002,-5.5075,-5.5084,-5.499,-5.4989,-5.4988,0,-5.4424,-5.4508,-5.4569,-5.4593,-5.4659,-5.4687,-5.4715,-5.4761,-5.4792,-5.4839,-5.486,-5.491,-5.4938,-5.4977,-5.5004,-5.4987,-5.5076,-5.5058,-5.5091,-5.5091,-5.5108,-5.5107,-5.5187,-5.5125,-5.5125,-5.5124,-5.5124,0,-5.448,-5.4529,-5.458,-5.4617,-5.4674,-5.4705,-5.476,-5.4789,-5.4831,-5.4874,-5.489,-5.4929,-5.4963,-5.5007,-5.5028,-5.5087,-5.5099,-5.5114,-5.5119,-5.5113,-5.5111,-5.513,-5.5127,-5.5127,-5.5126,-5.5126,-5.5125,0,-5.4514,-5.455,-5.4617,-5.4677,-5.4693,-5.4732,-5.4782,-5.4819,-5.4847,-5.4902,-5.4916,-5.4959,-5.5013,-5.5044,-5.511,-5.5125,-5.5191,-5.5194,-5.5176,-5.5179,-5.521,-5.5207,-5.5306,-5.5321,-5.5248,-5.5249,-5.5249,0,-5.4547,-5.4586,-5.4651,-5.4683,-5.4713,-5.4763,-5.4797,-5.483,-5.4864,-5.4923,-5.4953,-5.5009,-5.5055,-5.514,-5.5176,-5.5229,-5.5233,-5.5264,-5.524,-5.5234,-5.5235,-5.5233,-5.5237,-5.5268,-5.5268,-5.5269,-5.5269,0,-5.4603,-5.462,-5.4669,-5.4727,-5.4768,-5.4813,-5.4858,-5.4883,-5.4923,-5.4961,-5.5019,-5.5055,-5.5126,-5.5181,-5.5237,-5.5266,-5.5275,-5.5277,-5.5288,-5.5282,-5.527,-5.5278,-5.5188,-5.5274,-5.5274,-5.5273,-5.5273,-5.5273,-5.4638,-5.4676,-5.4729,-5.4784,-5.4823,-5.4866,-5.4905,-5.494,-5.4988,-5.5051,-5.5067,-5.5127,-5.5176,-5.5253,-5.5283,-5.5331,-5.5325,-5.534,-5.5344,-5.5347,-5.5349,-5.5263,-5.5341,-5.534,-5.534,-5.534,-5.534,0,-5.4696,-5.4733,-5.4784,-5.4849,-5.4893,-5.4901,-5.4953,-5.4989,-5.5043,-5.5089,-5.5136,-5.5203,-5.5258,-5.53,-5.5357,-5.5387,-5.5392,-5.54,-5.5398,-5.5405,-5.535,-5.5336,-5.5395,-5.5395,-5.5395,-5.5395,-5.5395,-5.5395,-5.4732,-5.4796,-5.482,-5.4905,-5.494,-5.5002,-5.5031,-5.5072,-5.5109,-5.5184,-5.5231,-5.526,-5.5305,-5.5366,-5.5417,-5.5428,-5.5448,-5.5456,-5.5468,-5.5415,-5.5409,-5.5403,-5.539,-5.546,-5.546,-5.5519,-5.552,-5.552]}]]